Weather History for Minneapolis Flying Cloud, MN

Change the Weather History Date:

Sunday, March 23, 2014

  Actual Average Record
Temperature  
Mean Temperature 16 °F -  
Max Temperature 26 °F 42 °F 73 °F (2012)
Min Temperature 7 °F 25 °F 7 °F (2014)
Degree Days  
Heating Degree Days 48    
Moisture  
Dew Point 6 °F    
Average Humidity 62    
Maximum Humidity 77    
Minimum Humidity 47    
Precipitation  
Precipitation 0.00 in - - ()
Sea Level Pressure  
Sea Level Pressure 30.49 in    
Wind  
Wind Speed 6 mph (WNW)    
Max Wind Speed 12 mph    
Max Gust Speed 17 mph    
Visibility 10 miles    
Events Snow    
Averages and records for this station are not official NWS values.
T = Trace of Precipitation, MM = Missing Value Source: NWS Daily Summary

Daily Weather History Graph

Daily Weather History Graph

Search for Another Location

Airport:

Trip Planner

Search our weather history database for the weather conditions in past years. The results will help you decide how hot, cold, wet, or windy it might be!

Date:

Astronomy

Mar. 23, 2014 Rise Set
Actual Time 7:11 AM CDT 7:30 PM CDT
Civil Twilight 6:42 AM CDT 7:59 PM CDT
Nautical Twilight 6:07 AM CDT 8:34 PM CDT
Astronomical Twilight 5:32 AM CDT 9:09 PM CDT
Moon 1:59 AM CDT (3/23) 11:41 AM CDT (3/23)
Length of Visible Light 13h 17m
Length of Day
12h 18m
Waning Gibbous, 54% of the Moon is Illuminated
Mar 23
Waning Gibbous
Mar 23
Last Quarter
Mar 30
New
Apr 7
First Quarter
Apr 15
Full

Hourly Weather History & Observations

Time (CDT) Temp. Windchill Dew Point Humidity Pressure Visibility Wind Dir Wind Speed Gust Speed Precip Events Conditions
12:53 AM 12.9 °F -0.9 °F 3.0 °F 65% 30.56 in 10.0 mi NW 11.5 mph - N/A   Clear
1:53 AM 12.0 °F -0.4 °F 3.0 °F 67% 30.56 in 10.0 mi NW 9.2 mph - N/A   Clear
2:53 AM 10.9 °F 1.4 °F 1.9 °F 67% 30.56 in 10.0 mi NNW 5.8 mph - N/A   Clear
3:53 AM 10.0 °F 3.6 °F 1.0 °F 67% 30.56 in 10.0 mi NNW 3.5 mph - N/A   Clear
4:53 AM 10.0 °F - 1.0 °F 67% 30.55 in 10.0 mi Calm Calm - N/A   Clear
5:53 AM 9.0 °F - 1.0 °F 70% 30.56 in 10.0 mi Calm Calm - N/A   Clear
6:53 AM 7.0 °F 0.1 °F 1.0 °F 77% 30.56 in 10.0 mi West 3.5 mph - N/A   Clear
7:53 AM 8.1 °F - 1.9 °F 76% 30.57 in 10.0 mi Calm Calm - N/A   Mostly Cloudy
8:53 AM 12.0 °F 5.9 °F 3.9 °F 70% 30.56 in 10.0 mi West 3.5 mph - N/A   Scattered Clouds
9:53 AM 15.1 °F 4.2 °F 7.0 °F 70% 30.56 in 10.0 mi West 8.1 mph - N/A   Mostly Cloudy
10:53 AM 18.0 °F 11.1 °F 7.0 °F 62% 30.55 in 10.0 mi Variable 4.6 mph - N/A   Mostly Cloudy
11:11 AM 19.4 °F 7.9 °F 6.8 °F 58% 30.49 in 10.0 mi West 10.4 mph - N/A   Overcast
11:53 AM 19.0 °F 9.0 °F 7.0 °F 59% 30.53 in 10.0 mi West 8.1 mph - N/A   Overcast
12:53 PM 19.9 °F 7.9 °F 7.0 °F 57% 30.51 in 9.0 mi WNW 11.5 mph - 0.00 in Snow Light Snow
1:53 PM 23.0 °F 12.4 °F 8.1 °F 53% 30.49 in 9.0 mi WNW 10.4 mph - 0.00 in Snow Light Snow
2:53 PM 23.0 °F 11.7 °F 8.1 °F 53% 30.47 in 10.0 mi West 11.5 mph 17.3 mph 0.00 in   Overcast
3:53 PM 24.1 °F 13.7 °F 7.0 °F 48% 30.45 in 10.0 mi WNW 10.4 mph - N/A   Mostly Cloudy
4:53 PM 26.1 °F 18.4 °F 9.0 °F 49% 30.42 in 10.0 mi NW 6.9 mph - N/A   Mostly Cloudy
5:53 PM 26.1 °F 19.4 °F 8.1 °F 47% 30.41 in 10.0 mi NNW 5.8 mph - N/A   Overcast
6:53 PM 24.1 °F 19.7 °F 8.1 °F 51% 30.40 in 10.0 mi West 3.5 mph - N/A   Overcast
7:53 PM 21.9 °F - 9.0 °F 58% 30.39 in 10.0 mi Calm Calm - N/A   Clear
8:53 PM 21.9 °F - 10.0 °F 60% 30.39 in 10.0 mi Calm Calm - N/A   Clear
9:53 PM 21.9 °F - 10.9 °F 63% 30.39 in 10.0 mi Calm Calm - N/A   Overcast
10:53 PM 19.9 °F 13.4 °F 10.9 °F 68% 30.40 in 10.0 mi North 4.6 mph - N/A   Clear
11:53 PM 19.9 °F 14.9 °F 10.0 °F 65% 30.40 in 10.0 mi North 3.5 mph - N/A   Clear